Location: Kumla
(59.1265°N, 15.1401°E)
Time: 06:18:56
(UTC+01:00)

Vanguard 2 Rocket - Pass Details

Date: 11 December 2023
Orbit: 555 x 3309 km, 32.9° (Epoch: 03 March)

Event Time Altitude Azimuth Distance (km) Brightness Sun altitude
Rises 12:35:26 0° 207° (SSW) 5,688 12.7 7.4°
Reaches altitude 10° 12:40:12 10° 193° (SSW) 5,119 14.4 7.3°
Maximum altitude 12:50:28 21° 152° (SSE) 4,932 11.5 7.0°
Drops below altitude 10° 13:02:45 10° 113° (ESE) 6,242 11.3 6.6°
Sets 13:09:31 0° 101° (E) 7,283 11.4 6.4°
